Wind_Speed
32 32 32 32 31 31 30 31 31 30 30 29 29 29 29 30 29 29 29 29 29 29 29 29 29 28 28 28 28 27 27 26 26 25 25 24 23 22 22 21 21 21 20
34 34 34 34 33 33 33 32 32 33 32 31 31 31 31 31 31 31 31 31 32 32 32 32 32 31 31 31 30 30 29 29 28 28 27 27 26 25 24 24 23 22 22
37 36 36 35 36 35 35 34 33 34 33 33 33 32 32 33 33 33 33 33 33 34 34 34 34 34 34 33 33 33 32 32 31 31 30 29 29 28 27 26 26 25 24
38 39 38 38 37 37 37 37 36 36 35 35 35 35 34 34 35 35 35 35 35 35 35 35 35 36 36 36 35 35 35 34 34 33 33 32 31 31 30 29 29 28 28
41 40 41 40 40 39 39 39 38 38 37 37 37 36 36 36 36 36 36 37 37 37 37 37 37 37 37 37 37 37 36 36 36 35 35 34 34 33 33 32 32 32 31
43 43 43 43 42 42 41 41 41 40 40 40 39 39 39 38 38 38 38 38 38 39 39 39 38 38 38 38 38 38 38 38 38 38 37 37 36 36 36 35 35 34 34
45 45 45 45 44 44 43 43 43 42 42 42 42 41 41 40 39 39 39 39 40 41 41 40 40 40 39 39 39 39 39 39 40 40 40 39 39 39 38 38 38 37 36
47 47 47 46 46 46 46 45 45 45 45 44 44 44 43 42 42 41 41 40 41 41 42 42 42 42 41 42 42 42 41 41 41 42 42 42 41 41 41 40 40 39 38
48 48 48 48 48 48 48 48 48 48 48 47 47 46 46 45 44 43 43 43 43 43 43 44 44 44 44 44 43 43 43 43 43 44 44 44 44 44 43 43 42 41 41
50 50 50 50 50 50 50 50 51 51 50 49 49 48 48 47 47 46 45 45 45 45 45 45 45 45 45 45 45 45 45 45 45 45 45 45 45 45 45 45 44 44 44
52 52 52 52 52 52 52 52 53 52 52 52 51 51 50 49 49 49 48 47 47 47 46 47 47 47 47 47 47 47 47 47 47 46 46 46 47 47 46 47 46 46 46
53 53 53 53 54 54 55 55 54 54 54 54 53 53 53 52 51 51 50 50 49 49 48 48 49 49 49 49 49 49 49 49 49 49 48 48 48 48 49 48 48 48 47
56 56 56 56 56 56 56 56 56 56 56 56 56 55 55 54 54 54 53 53 52 51 50 50 50 51 51 51 51 51 51 52 52 52 51 50 50 50 50 50 50 49 50
58 58 58 58 58 58 58 58 58 58 58 58 58 58 58 57 57 56 55 55 55 54 53 53 53 53 53 53 54 54 54 54 54 54 54 53 53 52 52 52 52 52 52
60 61 61 61 60 60 60 60 60 60 60 60 60 60 60 59 59 59 58 58 58 57 56 55 55 55 55 55 55 55 55 56 55 55 55 55 54 54 53 53 53 54 53
61 62 63 63 63 63 63 63 63 63 62 62 62 62 62 62 63 62 62 61 60 59 58 57 57 57 57 57 57 56 56 56 57 57 57 57 57 56 56 56 56 56 56
61 62 62 62 62 63 63 63 63 63 64 63 63 63 63 63 64 64 64 63 63 62 61 60 60 59 58 58 58 58 58 58 57 58 58 58 58 57 58 58 57 57 57
61 62 63 62 63 63 63 63 63 64 64 64 64 64 63 64 64 64 65 64 64 64 63 62 62 62 61 60 60 59 58 58 57 57 57 57 57 57 57 58 58 58 58
60 61 62 63 63 63 64 64 65 65 64 65 65 65 65 65 65 65 66 66 66 66 66 65 64 63 62 61 61 60 59 58 57 57 57 56 57 57 58 58 58 58 59
59 60 61 61 62 63 63 64 64 64 64 64 65 65 65 65 65 66 66 66 67 67 67 66 66 65 63 62 61 60 59 58 58 58 58 58 58 59 59 57 58 59 59
58 58 59 60 61 61 62 62 63 63 63 64 64 65 65 65 66 66 66 66 67 67 67 67 66 66 64 63 62 62 61 60 59 59 59 59 60 59 59 58 58 59 59
56 57 58 59 60 61 61 61 62 62 63 63 64 64 64 64 65 65 65 65 66 66 66 66 66 65 64 64 63 63 62 61 60 59 59 59 58 58 57 58 58 59 59
56 56 56 58 60 60 61 61 61 62 62 62 62 62 62 63 63 63 64 64 63 63 64 65 64 63 63 63 63 63 63 61 60 59 59 58 57 57 57 58 58 58 59
55 56 56 57 58 59 59 60 60 60 60 60 60 61 61 61 61 62 62 62 62 61 62 62 62 62 62 62 61 62 62 62 61 60 60 59 58 57 57 58 58 57 57
54 55 55 56 56 56 56 57 58 59 59 59 59 60 60 61 61 61 62 61 61 60 60 60 60 60 60 60 60 60 60 60 60 59 59 59 58 58 58 58 58 57 57
53 54 54 54 54 54 55 56 57 58 58 58 58 59 59 60 60 61 61 61 60 60 60 60 60 60 60 59 60 60 59 59 59 59 59 59 58 58 57 57 57 57 57
Wind_Direction
249 249 249 249 250 251 252 253 253 254 255 256 257 257 258 258 258 257 257 257 256 257 258 258 259 259 260 261 261 262 262 263 263 265 267 268 269 270 272 274 277 275 274
250 251 250 250 252 253 255 255 255 255 256 257 258 259 259 259 259 259 259 258 258 258 258 258 259 260 260 261 261 262 263 264 264 264 265 267 269 269 270 272 274 273 272
250 251 252 252 253 254 256 256 257 257 257 258 259 260 260 261 261 260 260 260 259 259 259 259 260 261 261 262 262 262 263 264 264 264 264 266 268 269 269 269 271 272 271
252 252 253 254 254 255 256 257 258 258 258 259 260 260 261 261 262 262 261 260 260 260 260 260 261 261 262 262 262 262 262 263 263 264 264 265 266 267 268 269 269 271 270
253 253 254 256 256 256 257 257 257 258 259 260 261 262 262 262 262 262 262 261 260 260 260 260 261 262 262 262 261 262 262 262 262 263 264 264 265 266 267 268 269 270 271
253 254 255 256 256 257 257 257 257 258 259 260 261 262 263 263 263 263 263 263 261 261 261 260 261 262 262 262 262 262 262 261 262 262 263 264 265 265 266 267 268 269 270
254 254 255 256 257 257 258 258 258 258 259 259 260 261 262 263 263 264 263 263 262 261 261 262 262 262 262 263 263 262 262 262 262 262 263 264 264 265 266 267 267 268 269
254 254 255 256 256 257 258 258 258 259 259 260 261 261 261 262 262 263 264 264 264 263 262 262 262 263 263 263 263 263 263 263 263 263 263 263 264 265 265 266 267 267 268
254 255 255 255 256 257 258 258 258 259 259 260 261 261 261 261 262 263 264 264 264 264 263 263 263 263 263 263 262 262 263 263 264 264 264 264 264 264 264 264 264 266 267
254 255 256 256 257 258 259 259 259 259 260 260 261 261 262 262 263 263 264 264 264 264 264 264 264 264 264 263 262 262 263 263 264 265 265 264 264 264 264 265 264 265 265
254 255 256 257 257 258 258 259 259 260 260 260 260 262 263 264 264 264 264 264 264 264 265 264 263 263 264 264 263 263 263 264 264 265 265 265 264 264 265 265 265 265 265
255 255 257 258 258 258 259 259 259 259 260 260 261 262 263 263 264 264 265 264 264 264 264 264 263 263 263 264 264 264 264 264 264 264 265 265 265 265 265 265 264 265 265
255 256 257 258 258 259 259 259 259 259 259 260 261 262 262 263 264 264 264 264 264 264 264 264 264 264 264 264 264 263 263 264 265 265 265 265 266 266 265 265 265 265 265
255 257 257 258 258 259 259 259 259 259 260 260 261 262 262 263 263 264 264 264 264 264 264 264 264 265 265 264 264 264 264 264 265 265 265 266 266 266 266 266 265 265 264
256 257 257 258 258 259 259 259 259 260 260 260 261 262 262 262 263 263 264 264 264 264 264 264 264 265 265 265 265 265 265 265 264 264 265 265 266 266 266 266 265 265 264
258 258 258 259 259 259 259 259 260 260 261 261 261 261 262 262 262 263 263 263 264 264 264 265 265 266 266 266 266 265 265 265 265 264 264 264 265 266 266 265 265 265 265
258 259 259 259 259 259 260 260 260 261 261 262 262 261 262 262 262 262 263 263 264 264 265 265 266 266 266 266 266 266 266 266 266 266 265 265 265 265 266 265 265 265 265
259 259 259 259 259 260 260 260 261 261 261 262 262 262 262 262 262 261 262 262 263 264 264 265 265 266 266 266 266 266 266 266 265 265 266 265 265 266 266 265 265 265 265
259 259 259 259 260 261 261 261 262 262 262 262 261 261 262 261 261 262 262 263 263 264 264 265 265 265 265 265 266 265 265 266 265 265 266 266 266 266 265 265 265 265 265
259 259 260 260 260 261 261 262 262 263 262 262 262 262 262 262 262 262 262 263 263 264 264 264 264 264 264 265 265 264 264 264 264 264 265 266 266 266 265 265 265 265 265
260 260 260 260 261 261 262 262 262 262 262 262 262 262 262 262 262 262 262 263 263 263 263 263 263 263 263 263 264 263 263 264 264 265 265 266 266 266 265 265 265 264 264
262 261 261 261 262 262 263 263 263 262 262 262 262 262 262 262 262 263 263 263 264 264 263 263 262 262 262 262 263 263 263 263 264 264 265 265 265 265 265 265 265 265 264
263 263 262 262 262 263 263 263 263 263 262 262 262 262 262 262 262 262 263 263 264 263 263 262 262 262 261 261 262 262 262 262 263 263 264 264 264 264 264 263 264 264 264
263 263 264 263 263 263 263 263 262 263 263 263 263 263 262 262 262 262 263 262 262 262 262 262 262 261 261 261 262 262 261 261 262 262 263 264 264 264 264 264 263 263 263
263 263 263 263 263 262 262 262 262 263 263 263 263 263 262 262 262 262 262 262 262 261 261 261 261 260 261 261 262 262 261 261 261 262 262 263 263 263 264 264 263 263 263
262 263 263 264 263 262 263 263 264 263 263 263 263 263 262 262 262 261 261 261 261 261 261 261 261 261 262 263 263 263 262 261 262 262 263 264 264 264 264 263 262 262 261
Height
5787 5790 5792 5793 5795 5797 5799 5800 5802 5803 5805 5806 5807 5809 5810 5811 5813 5814 5815 5816 5818 5819 5820 5821 5823 5824 5825 5826 5827 5828 5828 5829 5830 5831 5831 5832 5832 5833 5833 5833 5834 5833 5834
5780 5782 5784 5786 5788 5790 5792 5794 5795 5797 5798 5800 5801 5802 5803 5805 5806 5807 5809 5810 5811 5812 5813 5815 5816 5817 5818 5819 5820 5821 5822 5823 5824 5825 5826 5826 5827 5827 5828 5828 5828 5829 5829
5773 5775 5777 5779 5781 5782 5784 5786 5788 5789 5791 5792 5794 5795 5796 5797 5799 5800 5801 5802 5803 5805 5806 5807 5808 5810 5811 5812 5813 5814 5815 5816 5817 5818 5819 5820 5821 5821 5822 5822 5823 5823 5824
5764 5766 5768 5770 5772 5774 5776 5778 5780 5781 5783 5784 5786 5787 5788 5790 5791 5792 5793 5794 5796 5797 5798 5799 5800 5802 5803 5804 5805 5806 5807 5809 5810 5811 5812 5813 5814 5814 5815 5816 5816 5817 5818
5755 5757 5760 5761 5764 5766 5767 5769 5771 5773 5774 5776 5777 5779 5780 5781 5782 5783 5784 5786 5787 5788 5789 5791 5792 5793 5794 5795 5797 5798 5799 5800 5801 5803 5804 5805 5806 5807 5808 5809 5809 5810 5811
5746 5748 5750 5752 5754 5756 5758 5760 5762 5763 5765 5766 5768 5769 5770 5772 5773 5774 5775 5776 5777 5779 5780 5781 5783 5784 5785 5786 5787 5789 5790 5791 5792 5794 5795 5796 5797 5799 5800 5801 5802 5802 5803
5735 5738 5740 5742 5744 5746 5748 5750 5752 5753 5755 5756 5758 5759 5761 5762 5763 5764 5765 5766 5768 5769 5770 5772 5773 5775 5776 5777 5778 5779 5780 5781 5783 5784 5785 5787 5788 5789 5791 5792 5793 5794 5794
5724 5727 5729 5731 5733 5735 5737 5739 5741 5743 5744 5746 5747 5749 5751 5753 5753 5755 5756 5757 5758 5759 5760 5762 5763 5764 5766 5767 5768 5769 5770 5771 5773 5774 5775 5777 5778 5779 5781 5782 5783 5784 5785
5713 5715 5717 5720 5722 5724 5726 5728 5730 5731 5733 5735 5736 5738 5739 5741 5743 5745 5745 5746 5747 5748 5750 5751 5752 5753 5755 5756 5757 5758 5759 5761 5762 5763 5764 5766 5767 5769 5770 5771 5773 5774 5775
5700 5703 5705 5708 5710 5712 5714 5716 5717 5719 5721 5722 5724 5726 5727 5729 5731 5733 5734 5735 5736 5737 5738 5739 5740 5741 5742 5744 5745 5747 5748 5749 5751 5752 5753 5754 5756 5757 5759 5760 5762 5763 5764
5687 5689 5692 5694 5696 5699 5701 5702 5704 5706 5708 5710 5712 5713 5715 5716 5718 5720 5722 5723 5724 5725 5726 5727 5728 5729 5730 5731 5733 5734 5736 5737 5739 5740 5741 5742 5744 5745 5746 5748 5749 5751 5752
5673 5676 5678 5680 5682 5685 5687 5689 5691 5692 5694 5696 5698 5700 5702 5703 5705 5706 5708 5710 5712 5713 5713 5714 5715 5717 5718 5719 5721 5722 5723 5725 5726 5728 5729 5730 5731 5732 5734 5735 5736 5738 5740
5659 5662 5664 5666 5668 5670 5672 5674 5676 5678 5680 5682 5684 5686 5688 5689 5691 5692 5694 5696 5697 5699 5701 5702 5702 5703 5705 5706 5708 5709 5710 5712 5713 5714 5716 5717 5718 5719 5720 5722 5723 5725 5726
5644 5646 5648 5651 5653 5654 5657 5659 5661 5663 5665 5667 5669 5671 5673 5675 5676 5677 5679 5681 5683 5685 5687 5688 5689 5690 5691 5692 5694 5695 5696 5698 5699 5700 5702 5703 5704 5705 5706 5708 5709 5710 5712
5628 5630 5632 5635 5637 5639 5641 5643 5645 5647 5649 5651 5653 5655 5657 5659 5660 5662 5664 5665 5667 5670 5673 5674 5674 5675 5676 5678 5679 5680 5681 5682 5684 5685 5687 5688 5689 5690 5692 5693 5694 5696 5697
5612 5614 5616 5618 5620 5622 5624 5627 5629 5631 5633 5635 5637 5639 5641 5643 5644 5646 5648 5649 5651 5653 5656 5659 5659 5659 5660 5662 5663 5664 5665 5667 5668 5669 5671 5672 5673 5675 5676 5678 5679 5680 5682
5595 5597 5599 5601 5603 5605 5607 5609 5612 5614 5616 5618 5620 5621 5624 5625 5627 5629 5630 5632 5634 5636 5639 5642 5642 5643 5644 5645 5647 5648 5649 5650 5652 5653 5654 5655 5657 5658 5659 5661 5662 5664 5666
5578 5580 5582 5584 5586 5588 5590 5592 5594 5596 5598 5600 5602 5603 5606 5607 5609 5611 5613 5615 5617 5618 5621 5624 5625 5626 5628 5629 5630 5631 5632 5634 5635 5637 5638 5639 5641 5642 5643 5644 5645 5647 5650
5560 5562 5564 5566 5568 5570 5572 5574 5576 5578 5580 5582 5584 5585 5587 5589 5591 5593 5595 5597 5599 5600 5602 5605 5608 5609 5611 5611 5612 5614 5615 5617 5618 5620 5621 5623 5624 5625 5626 5627 5628 5630 5632
5542 5544 5546 5548 5550 5552 5554 5556 5557 5559 5562 5564 5565 5567 5569 5571 5573 5574 5576 5578 5580 5582 5584 5586 5589 5591 5593 5594 5595 5597 5598 5600 5602 5603 5604 5606 5608 5609 5610 5610 5612 5613 5615
5525 5527 5529 5531 5532 5534 5536 5537 5539 5541 5543 5545 5547 5549 5551 5552 5554 5556 5558 5559 5561 5562 5565 5567 5570 5572 5574 5576 5578 5579 5581 5583 5584 5586 5588 5589 5591 5593 5593 5593 5595 5596 5598
5508 5510 5511 5513 5515 5517 5518 5519 5521 5523 5524 5527 5529 5530 5532 5534 5536 5537 5539 5540 5542 5543 5546 5548 5551 5553 5556 5558 5559 5560 5563 5565 5568 5571 5570 5572 5574 5575 5576 5577 5578 5579 5581
5492 5493 5495 5496 5498 5499 5500 5501 5502 5504 5506 5508 5510 5512 5513 5515 5517 5518 5520 5521 5523 5524 5527 5529 5532 5535 5537 5540 5541 5543 5545 5547 5550 5552 5553 5556 5557 5558 5559 5560 5562 5563 5565
5475 5476 5477 5478 5480 5482 5482 5483 5484 5485 5487 5490 5492 5493 5495 5497 5498 5500 5501 5503 5505 5508 5510 5512 5515 5518 5519 5520 5522 5525 5526 5529 5532 5534 5536 5539 5541 5542 5543 5544 5545 5547 5549
5458 5459 5460 5461 5463 5464 5465 5466 5466 5468 5470 5472 5474 5475 5477 5479 5481 5482 5484 5486 5489 5490 5492 5493 5496 5499 5501 5503 5504 5506 5509 5511 5515 5518 5519 5521 5523 5524 5526 5528 5529 5530 5532
5441 5442 5443 5444 5445 5447 5448 5448 5449 5450 5453 5455 5456 5458 5459 5461 5462 5463 5465 5468 5470 5473 5474 5476 5479 5481 5483 5485 5487 5489 5491 5494 5497 5500 5502 5503 5505 5507 5510 5512 5512 5514 5516